This is the latest recevied weather packets stored in our database for station/object WW3TRG. If no packets are shown the sender has not sent any weather packets the latest 10 day(s).
| Time | Temp. | Humidity | Pressure | Rain* | Wind** | Luminosity | Snow |
|---|---|---|---|---|---|---|---|
| 1777388947 | 15.56° C | 54% | 1020.6 hPa | 0 mm | - | 340 W/m² | - |
| 1777388643 | 15.56° C | 55% | 1020.6 hPa | 0 mm | - | 321 W/m² | - |
| 1777388340 | 15.56° C | 58% | 1020.6 hPa | 0 mm | - | 261 W/m² | - |
| 1777388040 | 15° C | 56% | 1020.9 hPa | 0 mm | - | 258 W/m² | - |
| 1777387736 | 15° C | 57% | 1020.9 hPa | 0 mm | - | 229 W/m² | - |
| 1777387434 | 15° C | 59% | 1020.7 hPa | 0 mm | - | 198 W/m² | - |
| 1777387133 | 14.44° C | 60% | 1020.5 hPa | 0 mm | - | 185 W/m² | - |
| 1777386829 | 14.44° C | 63% | 1020.6 hPa | 0 mm | - | 181 W/m² | - |
| 1777386526 | 14.44° C | 61% | 1020.6 hPa | 0 mm | - | 179 W/m² | - |
| 1777386223 | 14.44° C | 60% | 1020.6 hPa | 0 mm | - | 172 W/m² | - |
| 1777385921 | 14.44° C | 62% | 1020.6 hPa | 0 mm | - | 175 W/m² | - |
| 1777385616 | 14.44° C | 60% | 1020.6 hPa | 0 mm | - | 187 W/m² | - |
| 1777385314 | 14.44° C | 60% | 1020.5 hPa | 0 mm | - | 193 W/m² | - |
| 1777385010 | 14.44° C | 61% | 1020.6 hPa | 0 mm | - | 202 W/m² | - |
| 1777384708 | 13.89° C | 63% | 1020.4 hPa | 0 mm | - | 207 W/m² | - |
| 1777384407 | 14.44° C | 62% | 1020.7 hPa | 0 mm | - | 228 W/m² | - |
| 1777384103 | 14.44° C | 65% | 1020.6 hPa | 0 mm | - | 242 W/m² | - |
| 1777383799 | 13.89° C | 63% | 1020.9 hPa | 0 mm | - | 253 W/m² | - |
| 1777383495 | 13.33° C | 62% | 1020.8 hPa | 0 mm | - | 253 W/m² | - |
| 1777383192 | 13.33° C | 63% | 1020.8 hPa | 0 mm | - | 251 W/m² | - |
| 1777382889 | 13.33° C | 63% | 1020.7 hPa | 0 mm | - | 228 W/m² | - |
| 1777382585 | 13.33° C | 62% | 1021 hPa | 0 mm | - | 208 W/m² | - |
| 1777382280 | 12.78° C | 63% | 1021 hPa | 0 mm | - | 210 W/m² | - |
| 1777381977 | 12.78° C | 64% | 1020.8 hPa | 0 mm | - | 196 W/m² | - |
| 1777381672 | 12.78° C | 64% | 1020.8 hPa | 0 mm | - | 181 W/m² | - |
* Rain latest hour (hover to see other rain measurements)
** Current wind speed in m/s (hover to see current wind gust speed)